Dewpoint
34 32 31 29 27 26 27 26 26 26 26 26 26 27 28 28 28 29 29 31 31 32 33 33 34 34 34 34 35 36 36 36 33 33 35 36 36 37 38 40 42 42 42
27 28 26 26 25 25 25 25 26 26 27 27 28 28 28 29 29 30 30 32 33 33 34 34 34 35 35 35 35 34 34 35 33 32 33 33 33 35 36 37 38 39 41
27 27 26 25 25 25 26 26 26 26 27 27 27 28 28 29 31 31 32 33 33 33 34 34 34 35 34 34 34 34 32 32 32 32 32 33 34 35 36 36 36 37 39
27 27 26 26 27 27 27 27 27 26 26 26 27 27 28 29 31 32 33 33 32 33 34 34 34 35 34 34 34 32 33 33 33 34 33 33 34 35 35 35 35 36 36
27 27 27 27 27 27 26 26 26 26 26 26 26 26 27 27 32 32 32 32 32 32 33 33 34 34 35 37 35 33 33 34 36 35 33 32 33 34 35 36 36 36 36
26 26 26 25 25 25 25 24 24 24 25 25 25 25 26 26 31 31 31 31 31 32 31 32 33 33 33 34 34 34 32 33 34 35 34 34 35 36 37 37 37 37 35
25 24 23 23 22 22 22 22 21 22 23 23 23 24 24 26 29 30 30 31 30 31 31 31 31 31 33 33 33 34 35 35 33 36 36 36 36 38 39 37 36 36 35
22 21 21 21 21 21 20 19 20 21 21 21 22 23 23 24 27 28 28 30 30 30 30 31 30 30 31 31 29 30 32 34 34 36 37 38 39 39 38 38 35 34 34
20 19 19 19 19 18 17 17 19 18 19 21 22 22 22 23 26 27 26 27 27 27 29 30 30 28 28 28 29 28 30 31 33 35 38 38 39 38 38 37 34 32 32
19 18 18 18 17 16 16 15 17 17 19 20 21 22 22 22 25 23 23 23 23 25 27 26 25 26 27 28 29 28 28 30 32 34 35 36 36 35 36 34 35 31 31
19 18 17 16 16 17 16 16 16 17 17 18 19 20 21 22 23 22 21 22 23 23 23 23 25 25 26 27 28 29 30 33 34 36 34 33 33 32 31 31 32 32 32
18 16 15 15 15 16 16 16 17 16 16 16 17 18 21 21 22 22 22 22 23 23 23 24 24 24 25 27 28 29 31 33 35 34 34 32 31 30 30 30 31 31 32
15 14 14 15 16 16 15 16 16 16 15 15 17 18 20 22 23 21 21 22 22 22 22 23 24 24 26 26 27 28 30 31 32 31 32 31 30 30 30 30 30 30 30
13 12 13 15 14 14 16 16 15 15 14 16 18 18 20 20 20 20 21 22 21 21 22 24 25 25 25 25 26 27 27 31 33 31 31 31 30 29 28 29 28 28 28
11 12 12 12 12 12 14 14 15 16 17 18 19 19 18 19 19 20 21 20 21 21 22 26 26 26 27 26 27 28 28 31 31 31 30 29 28 28 28 29 28 28 26
11 10 11 12 12 13 13 15 17 18 18 18 18 18 18 18 19 20 19 20 21 21 23 24 24 25 24 24 25 26 28 30 31 31 29 28 27 27 27 27 28 26 25
10 10 12 12 13 14 15 16 16 17 16 16 16 16 17 18 18 18 19 20 18 21 23 22 23 24 24 25 26 26 27 30 32 30 29 28 27 26 27 26 26 23 23
12 13 14 14 15 16 16 17 16 15 15 14 14 15 16 16 17 18 18 17 16 19 20 21 21 22 24 25 26 27 28 31 29 29 28 27 27 26 25 25 24 22 21
13 14 14 15 16 15 15 15 15 15 14 14 14 14 15 15 17 17 15 15 16 17 17 19 21 22 24 25 28 29 30 30 28 28 27 27 27 26 25 25 23 22 21
15 15 15 15 14 14 15 14 13 13 13 14 14 14 14 16 17 15 14 15 15 15 15 16 20 22 24 26 29 30 30 29 28 27 27 27 27 26 25 25 24 22 20
15 14 14 14 14 14 14 13 13 13 14 14 14 14 15 15 15 14 15 15 14 14 15 16 20 21 24 26 29 29 29 28 28 27 27 26 26 25 25 24 21 19 18
15 15 14 14 14 13 13 13 14 14 14 14 15 15 14 15 15 15 15 15 15 15 15 17 20 22 25 26 29 29 29 28 27 27 27 26 26 25 25 22 20 19 20
15 14 14 14 14 14 14 13 14 15 15 15 15 15 15 15 15 14 15 15 15 15 15 17 20 21 24 25 28 29 29 28 28 28 27 26 25 25 24 22 20 19 19
13 13 13 13 14 15 15 15 15 15 15 15 15 15 15 15 15 15 15 15 15 15 15 17 18 21 23 24 27 30 31 30 30 29 28 27 25 25 23 21 20 20 21
17 17 16 16 17 17 17 17 17 16 15 15 15 15 15 15 15 14 14 14 14 14 15 15 16 19 21 24 26 29 30 31 30 29 28 27 26 25 23 21 21 21 22
18 17 17 17 17 16 16 16 15 15 15 15 15 15 15 15 15 15 14 14 13 13 13 14 14 17 21 24 27 30 30 31 30 30 28 27 25 23 22 21 21 21 20
Wind_Speed
17 18 18 18 17 17 17 9 15 12 12 12 11 12 11 11 11 12 11 12 10 9 9 10 11 11 12 13 12 11 13 14 20 20 19 19 21 21 20 21 21 22 22
18 18 19 18 17 17 16 12 14 11 14 12 12 11 10 9 10 11 10 9 10 11 11 12 13 11 12 11 12 15 14 14 17 27 24 24 24 22 23 23 21 21 23
19 19 18 17 17 15 15 13 13 13 12 11 11 10 8 8 8 8 8 9 10 10 11 12 13 12 12 13 13 12 14 16 18 22 29 23 23 18 20 20 22 20 19
18 18 19 17 16 15 14 14 13 11 12 11 10 9 8 7 7 7 7 9 11 12 12 11 12 12 14 16 13 14 16 18 19 21 24 27 24 21 19 23 25 19 22
19 19 18 17 16 15 14 13 12 12 10 9 9 9 8 6 5 6 8 10 12 13 13 12 11 14 17 15 11 15 17 18 18 21 22 26 25 25 23 20 22 25 24
19 19 17 16 15 14 13 13 12 10 10 10 10 9 9 6 7 10 10 9 9 10 14 13 12 14 14 18 19 20 19 20 20 21 22 23 24 23 21 18 22 22 24
19 17 17 16 16 14 12 12 11 10 8 9 9 8 8 8 10 12 11 7 10 11 12 13 14 13 17 15 19 20 20 23 21 22 25 22 26 19 15 16 16 17 15
18 17 16 16 15 13 12 11 9 8 9 8 8 9 9 9 11 11 12 8 8 9 11 14 15 16 14 19 20 20 20 20 20 19 19 21 14 13 12 17 10 10 5
18 17 15 15 14 12 12 10 8 8 8 8 7 9 10 10 13 14 15 11 10 11 12 13 14 16 18 23 22 26 25 24 21 26 23 23 19 17 13 10 10 7 5
16 15 14 13 13 12 10 9 6 6 7 7 8 8 10 11 14 15 15 11 14 13 11 12 17 19 24 26 25 25 28 28 25 25 15 14 13 11 11 6 6 8 5
16 15 14 12 12 10 9 7 6 7 8 9 9 9 9 11 12 16 19 14 13 14 17 16 15 23 27 30 29 23 25 29 30 23 13 10 9 7 7 7 5 6 6
15 15 13 11 9 8 9 7 7 8 8 8 8 8 7 9 12 15 18 17 20 17 19 17 19 28 32 32 28 26 29 29 21 21 16 12 9 7 7 7 6 5 4
14 14 12 11 9 7 8 6 6 7 8 8 6 8 9 8 9 14 17 19 20 19 18 24 31 31 31 25 24 29 26 18 20 22 16 9 5 4 6 7 5 4 4
15 13 10 9 9 7 6 5 5 6 6 5 6 8 9 10 9 11 13 15 18 19 23 22 25 28 25 24 22 19 18 18 19 20 12 6 3 3 4 4 3 3 2
12 10 11 9 7 5 5 4 5 4 6 9 8 9 11 11 12 19 20 18 19 22 28 17 19 20 20 20 18 18 19 18 17 14 9 6 5 4 3 2 2 2 2
13 9 7 6 5 5 4 5 6 8 10 9 11 13 10 15 19 20 22 25 26 28 18 16 18 18 20 21 20 22 20 20 18 12 8 7 6 5 2 1 1 1 2
10 7 5 5 4 4 4 5 8 7 8 10 14 15 16 17 19 22 22 23 22 21 15 16 18 19 20 21 20 20 21 20 19 10 8 7 6 4 3 2 2 1 2
7 7 5 4 3 3 4 4 4 7 10 12 11 14 16 17 19 21 22 21 15 14 15 17 19 20 21 22 23 22 20 19 10 8 7 7 6 5 3 3 3 3 5
6 4 3 1 2 3 4 6 5 6 7 9 12 14 14 18 19 19 21 13 14 16 16 19 20 21 22 23 21 21 19 16 9 7 7 7 6 5 4 4 5 6 6
4 3 2 2 3 3 4 5 6 8 9 9 10 11 13 14 12 13 14 14 15 16 17 19 20 21 22 23 22 21 18 9 8 7 7 7 7 6 6 6 6 6 6
4 3 3 3 5 5 5 7 8 9 10 10 10 11 17 16 10 14 14 15 15 17 19 19 21 22 21 22 20 20 10 6 7 7 7 7 7 6 6 6 8 10 10
1 4 5 6 6 6 8 8 7 9 11 11 12 12 18 12 12 13 14 14 15 16 17 19 20 20 21 22 20 18 10 7 7 8 8 8 8 7 7 8 10 11 10
2 4 6 8 9 10 10 11 11 11 12 12 12 12 13 13 12 13 13 15 15 17 17 18 19 21 20 21 20 15 12 9 8 8 9 9 9 8 8 9 11 11 10
4 6 8 10 10 10 10 11 12 14 15 13 12 12 12 12 13 13 14 14 15 17 17 17 19 23 22 23 20 14 10 6 8 9 10 9 10 9 9 10 11 11 11
8 9 10 10 9 10 11 12 12 12 12 12 13 13 12 12 13 14 14 14 15 16 17 19 18 21 23 28 24 17 10 5 8 10 9 9 9 10 10 11 11 11 10
7 8 9 9 11 12 13 13 13 12 12 12 13 13 13 13 13 14 15 15 15 15 18 17 20 23 26 22 21 16 9 6 9 10 9 9 10 9 11 11 11 11 11
Wind_Direction
111 112 112 108 105 103 102 106 102 100 95 86 85 79 71 60 51 55 42 28 21 10 5 2 1 354 351 349 347 344 334 327 311 311 311 313 309 309 310 303 294 291 288
118 115 110 109 108 107 107 103 99 96 86 88 83 77 68 60 59 58 41 23 14 4 358 359 354 347 343 342 335 327 320 320 317 313 313 314 312 310 303 302 301 297 291
118 116 111 109 107 106 103 98 97 93 90 82 80 73 63 58 82 53 38 19 7 0 354 349 338 333 329 323 319 322 325 319 314 305 306 305 301 305 302 298 299 297 291
114 114 114 113 111 107 104 99 97 91 85 77 73 70 57 78 70 45 27 12 4 355 344 335 328 325 321 314 314 327 311 312 307 300 304 309 310 310 306 306 307 305 300
118 116 117 115 113 111 104 97 91 83 79 78 74 63 49 56 62 26 15 8 360 345 330 324 320 313 312 309 319 315 309 306 304 302 305 309 310 311 308 306 299 302 302
122 121 119 114 107 102 100 97 88 78 72 67 57 51 42 19 10 12 5 351 342 332 325 318 314 312 314 316 310 304 312 306 302 301 303 303 305 302 300 306 307 307 307
122 121 119 117 110 104 98 90 82 75 70 61 48 36 24 10 6 0 348 344 334 322 318 315 317 316 313 308 305 301 304 302 299 289 292 299 301 311 314 312 311 309 306
122 121 119 115 110 106 99 90 78 65 54 42 30 17 9 360 351 350 352 349 322 315 312 308 304 301 304 313 310 309 305 298 294 291 277 287 297 310 317 306 308 298 295
126 123 121 118 113 107 97 86 70 61 51 29 17 7 357 347 349 354 355 341 323 312 303 297 302 307 308 313 314 312 309 304 295 290 268 274 286 303 315 306 302 294 288
125 120 116 113 110 100 92 83 64 55 39 22 14 6 351 350 353 350 347 338 324 318 315 318 312 312 314 316 315 312 307 306 304 297 267 266 281 291 301 317 295 270 281
123 118 112 109 104 97 88 77 59 47 33 21 11 360 359 355 345 345 343 337 330 333 321 319 313 313 314 316 314 308 300 302 304 300 267 271 270 288 314 314 316 281 247
123 118 113 107 98 90 89 70 55 40 28 14 2 355 351 338 340 339 339 338 333 325 318 315 310 313 316 314 313 306 308 308 301 301 281 272 263 289 301 307 315 314 309
118 114 109 103 96 95 77 63 49 37 23 1 353 335 328 325 319 328 331 329 329 324 316 312 314 313 313 312 309 312 315 310 308 304 277 251 244 253 276 283 282 305 10
117 114 116 113 84 66 59 50 31 16 357 336 333 327 318 317 322 319 319 325 329 324 315 307 309 312 310 310 314 312 313 305 306 302 269 249 230 236 260 275 287 320 323
119 114 91 80 73 56 39 26 9 360 341 340 327 318 321 324 326 328 329 331 326 319 316 317 317 316 310 313 311 310 313 305 302 283 255 244 245 244 255 268 258 266 239
97 91 83 75 54 49 38 5 3 350 340 335 336 330 328 327 326 330 333 326 327 321 318 321 311 312 313 310 312 309 305 305 305 265 245 239 239 237 236 285 302 212 190
96 88 74 64 58 39 20 356 336 336 336 341 340 337 337 330 332 331 329 330 331 325 318 309 308 309 309 309 304 300 300 300 298 233 221 222 220 219 216 219 141 103 113
85 77 71 59 43 10 339 317 326 327 335 335 338 335 335 334 329 329 336 337 324 324 320 318 316 314 311 309 305 298 297 297 264 220 211 206 203 189 176 187 161 169 147
101 103 98 94 11 350 348 328 330 339 334 326 326 329 334 331 326 334 333 327 321 319 318 315 314 313 310 308 302 301 292 286 227 207 198 195 188 176 185 172 165 172 152
81 65 62 59 0 340 330 333 336 328 317 313 314 316 317 313 326 330 324 324 322 319 317 313 311 310 313 308 309 308 296 241 201 195 189 183 181 176 178 167 169 156 150
37 19 14 12 341 331 324 325 310 302 299 300 302 305 313 322 322 316 316 318 320 318 315 311 309 310 314 312 315 317 286 216 192 184 180 177 166 166 158 146 147 143 139
47 339 338 333 327 315 306 290 295 300 294 291 291 297 313 315 301 301 308 311 313 310 309 306 307 306 313 314 314 316 283 225 193 181 174 168 161 157 145 145 149 149 145
291 322 321 319 313 310 308 299 289 282 282 283 288 297 302 298 296 297 301 306 309 311 312 308 306 311 312 318 311 307 296 231 194 172 167 164 160 157 149 152 156 153 147
286 303 304 301 298 293 287 291 287 292 299 295 289 285 285 286 290 297 301 304 307 309 308 306 311 308 313 317 316 308 295 215 176 170 161 161 163 159 150 156 162 156 149
283 285 282 285 287 284 285 286 283 280 279 284 289 290 292 292 295 297 295 299 301 304 306 310 309 311 313 315 315 311 301 239 166 156 153 154 155 152 157 160 159 149 144
291 293 295 300 297 292 285 282 281 282 285 290 292 293 291 293 293 295 296 297 299 303 306 308 309 310 311 316 319 313 294 222 173 158 150 152 149 148 153 157 152 142 141